Starlink 30169

operational
NORAD ID: 57499 Int'l Des: 2023-113 Owner: SPXS Country: US Constellation: starlink
LEOCIRCULAR

About Starlink 30169

Description loading...

Live Position

Loading 3D Globe...

Upcoming Passes

Altitude History

Altitude vs Time

uPlot chart will show altitude changes over time

Two-Line Element Set

1 57499U 23113E 25354.56604474 -.00000884 00000-0 -50347-4 0 9994
2 57499 43.0040 74.9261 0002015 281.4581 78.6035 15.02535905131743
Epoch: Dec 20, 2025 • Age: 10 hours

Current Status

Altitude 558.1 km
Velocity 7.58 km/s
Sub-Earth Point 6.23°N, 1.68°E
Launch Date Aug 7, 2023
Age 2.3 years
Type internet

Technical Details

Classification Payload
Mass 730.00 kg
Dry Mass 700.00 kg
Total Mass 730.00 kg
Length 0.30 m
Diameter 4.10 m
Span 29.00 m
Shape Box + pan
Manufacturer SPXS
Bus Type Starlink V2M
Phase Status In Orbit
Owner/State SPXS/US

Large Constellations

Loading constellations...